Погода в Перелазовском

Россия / Волгоградская область     49°08′11″N   42°34′20″E
темп.,
°C
ветер,
м/с
пор.,
м/с
влажн.,
%
обл.,
%
осадки,
мм/ч
давл.,
гПа
погр.,
м
15 мая, сб
сб1500:00+19ююв51659100 0.0 1013344
03:00+17ююв61552100 0.0 1013270
06:00+16ююв413616 0.0 1014292
09:00+22ююв712475 0.0 1014606
12:00+26ю7114146 0.0 10141121
15:00+27ю7104052 0.0 10141606
18:00+26ююз34545 0.0 1013123
21:00+20ссз016847 0.0 101311
16 мая, вс
вс1600:00+18вюв346591 0.0 101349
03:00+16ююв335072 0.0 101329
06:00+16юв375949 0.0 1014145
09:00+23ююв594133 0.0 1014463
12:00+27ююв683098 0.0 10141159
15:00+28юв6927100 0.0 10131760
18:00+26всв364891 0.0 1011112
21:00+20в41052100 0.0 1012137
17 мая, пн
пн1700:00+19вюв5145099 0.0 1012222
03:00+17вюв51450100 0.0 1011215
06:00+17вюв5155381 0.0 1011267
09:00+24вюв7143920 0.0 1011575
12:00+28вюв81433100 0.0 10112111
15:00+29юв81331100 0.0 10102403
18:00+25вюв51144100 0.0 1009257
21:00+20вюв512504 0.0 1011172
18 мая, вт
вт1800:00+18вюв4134526 0.0 1010210
03:00+16вюв4114363 0.0 1010145
06:00+16ююв2552100 0.0 1010123
09:00+22юв463813 0.0 1009431
12:00+26ююв573389 0.0 10091276
15:00+26ююз573864 0.0 10091689
18:00+22зюз676354 0.0 1010562
21:00+18зюз3874100 0.0 1011199
19 мая, ср
ср1900:00+17зюз3876100 0.0 1012214
03:00+16зюз2580100 0.1 1012141
06:00+16юз23808 0.0 1013122
09:00+20юз56664 0.0 1013782
12:00+23зюз455593 0.0 10131436
15:00+23зюз435526 0.6 10121378
18:00+21ююз236989 1.0 101281
21:00+18юз22815 1.4 101318